Voltar ao catálogo

SL-14 DEB

AtivoPO
NORAD 45295·DEBRIS·🇷🇺 Russia

Lançado Aug 15, 1991 de Plesetsk Cosmodrome

Loading…

Próximas Passagens (próximas 24 horas)

TLE

AtualizadoSource: Space-Track

Época: Sep 14, 2026, 07:29 UTC

1 45295U 91056AH  26257.31218609  .00001096  00000-0  19573-2 0  9991
2 45295  82.5709  20.5896 0076131 345.5839  14.3124 13.40029709319680

Acompanhe SL-14 DEB em tempo real com AllMySat

Download on the App Store